Lexington Weather

Lexington, Massachusetts, USA

60°F
10/23/2020 5:41pm 
  • Lexington Conditions: Overcast
  • Temperature: 59.5°F / 15.3°CColder 2.6°F than last hour.
  • Dew Point: 53.8°FDecreased 2.0°Fsince last hour.
  • Relative Humidity: 81%Increased 1.0% since last hour.
  • Wind: Wind from S S 2 mph, 10-min avg: 1 mph, gust: 5 mph
  • Barometer: 30.08 inFalling 0.02  inHg/hr Falling Slowly
  • Visibility: 10 miles
  • Rain Today: 0.00 in
  •   

Regional Weather Roundup
for Boston / Norton, MA

        
000
ASUS41 KBOX 221704
RWRBOX

REGIONAL WEATHER ROUNDUP
NATIONAL WEATHER SERVICE BOSTON/NORTON MA
100 PM EDT THU OCT 22 2020

NOTE:  "FAIR" INDICATES FEW OR NO CLOUDS BELOW 12,000 FEET WITH NO 
SIGNIFICANT WEATHER AND/OR OBSTRUCTIONS TO VISIBILITY.

MAZALL-221800-
EASTERN MASSACHUSETTS
  
CITY           SKY/WX    TMP DP  RH WIND       PRES   REMARKS
BOSTON         MOSUNNY   66  56  70 E13       30.25F                  
BEVERLY        SUNNY     68  55  63 E7        30.24F                  
LAWRENCE       SUNNY     69  53  56 CALM      30.26F                  
BEDFORD        MOSUNNY   72  58  61 NE3       30.23F                  
BLUE HILL        N/A     68  59  73 VRB5      30.24F                  
NORWOOD        MOSUNNY   76  60  57 N7        30.23F                  
MARSHFIELD     SUNNY     66  55  68 NE6G15    30.25F                  
PLYMOUTH       SUNNY     68  55  63 NE8       30.25F                  
TAUNTON        MOSUNNY   76  61  59 E5        30.22F                  
NEW BEDFORD    MOSUNNY   77  63  61 NE3       30.23F                  
$$

MAZALL-221800-
CAPE COD AND THE ISLANDS
  
CITY           SKY/WX    TMP DP  RH WIND       PRES   REMARKS
FALMOUTH       SUNNY     70  59  68 NE12      30.24F                  
HYANNIS        MOSUNNY   68  61  78 N10       30.23F                  
CHATHAM        PTSUNNY   70  56  61 NE9       30.25F                  
PROVINCETOWN   SUNNY     64  58  80 NE6       30.25F                  
NANTUCKET      MOSUNNY   72  63  73 NE13      30.24F                  
MARTHAS VNYRD  PTSUNNY   73  64  73 S5        30.24S                  
$$
 
MAZALL-221800-
CENTRAL AND WESTERN MASSACHUSETTS
  
CITY           SKY/WX    TMP DP  RH WIND       PRES   REMARKS
WORCESTER      CLOUDY    70  57  63 W8        30.25F                  
FITCHBURG      PTSUNNY   75  56  51 SW5       30.24F                  
ORANGE         PTSUNNY   71  54  54 SW9       30.25F                  
SPRINGFIELD    MOSUNNY   73  57  56 CALM      30.22F                  
WESTFIELD      SUNNY     74  58  57 CALM      30.23F                  
NORTH ADAMS    SUNNY     69  53  56 CALM      30.24F                  
PITTSFIELD     CLOUDY    70  55  59 CALM      30.24F                  
$$
 
RIZALL-221800-
RHODE ISLAND
  
CITY           SKY/WX    TMP DP  RH WIND       PRES   REMARKS
PROVIDENCE     SUNNY     75  60  59 VRB3      30.24F                  
NEWPORT        SUNNY     74  62  66 E5        30.23F                  
BLOCK ISLAND   SUNNY     69  61  75 NE5       30.24F                  
SMITHFIELD     SUNNY     76  61  59 CALM        N/A                   
WESTERLY       SUNNY     70  63  78 SE6       30.24F                  
$$
 
CTZALL-221800-
CONNECTICUT
  
CITY           SKY/WX    TMP DP  RH WIND       PRES   REMARKS
BRADLEY INTL   MOSUNNY   74  57  55 CALM      30.22F                  
HARTFORD       MOSUNNY   74  58  57 CALM      30.23F                  
BRIDGEPORT     MOSUNNY   71  63  75 SE5       30.24F                  
DANBURY        CLOUDY    69  61  75 SW3       30.26F                  
GROTON         MOSUNNY   67  64  90 SW7       30.23F                  
NEW HAVEN      MOSUNNY   72  65  78 S7        30.24F                  
CHESTER        FAIR      75  64  69 CALM      30.24F                  
MERIDEN        MOSUNNY   75  60  59 VRB3      30.23F                  
WILLIMANTIC    SUNNY     76  60  57 VRB3      30.23F                  
OXFORD         PTSUNNY   72  63  73 CALM      30.26F                  
$$

MEZ002-015-021-024-NHZ003-005-008-011-012-014-VTZ005-008-221800-
NORTHERN NEW ENGLAND
  
CITY           SKY/WX    TMP DP  RH WIND       PRES   REMARKS
PORTLAND ME    MOSUNNY   60  53  77 E8        30.25F                  
BANGOR ME      PTSUNNY   62  42  47 NW12      30.25F                  
CONCORD NH     SUNNY     67  50  54 VRB5      30.26S                  
MANCHESTER NH  MOSUNNY   68  50  52 CALM      30.24F                  
NASHUA NH      SUNNY     69  55  60 VRB3      30.25F                  
PORTSMOUTH NH  PTSUNNY   64  48  57 E10       30.24F                  
JAFFREY NH     MOSUNNY   70  53  54 W5        30.26F                  
KEENE NH       SUNNY     69  54  58 N6        30.25F                  
BURLINGTON VT  PTSUNNY   58  41  53 VRB3      30.27F                  
MT. WASHINGTON NOT AVBL                                               
$$

NYZ052-076-221800-
EASTERN NEW YORK
  
CITY           SKY/WX    TMP DP  RH WIND       PRES   REMARKS
ALBANY         MOSUNNY   64  52  64 CALM      30.26F                  
NEW YORK CITY  CLOUDY    67  62  84 NE5       30.25F HAZE             
$$
 
ANZALL-221800-
MARINE OBSERVATIONS
  
STATION/POSITION TIME  TEMP    WIND        PRES    VSBY  WAVE
                       AIR SEA DIR/SP/G                  HT/PER
                 (UTC) (F)     (DEG/KT/KT) (MB)    (MI)  (FT/S)
BOSTON BUOY      1550   60 58   40/  8/ 10 1024.0          3/10
BUZZARDS BAY     1600          210/  3/  3 1025.4S
NANTUCKET SOUND  1650      62  270/  4/  4   N/A           1
MASS BAY-STELLWA 1604   58 58   20/  6/  8 1024.6R  1 7/8  3/11
ISLE OF SHOALS   1600   54      50/  5/  6 1024.6F
S OF BLOCK IS    1626      64                N/A           4/11
$$

......................KEY.........................
  SKY/WX - SKY CONDITION/PRESENT WEATHER
  TMP    - TEMPERATURE IN FAHRENHEIT
  DWPT   - DEWPOINT IN FAHRENHEIT
  RH     - RELATIVE HUMIDITY IN PERCENT
  WIND   - DIRECTION AND SPEED IN MPH
  PRES   - MEAN SEA LEVEL PRESSURE IN INCHES OF HG
  WCI    - WIND CHILL INDEX
  VSB    - VISIBILITY IN MILES
  HX     - HEAT INDEX
  TC     - TEMPERATURE IN CELSIUS
  VRB    - VARIABLE WIND DIRECTION
  N/A    - NOT AVAILABLE
  
      

Other recent Regional Weather Roundups

Fri Oct 23, 5:05pm

Fri Oct 23, 4:04pm

Fri Oct 23, 3:04pm

Fri Oct 23, 2:05pm

Fri Oct 23, 1:04pm

Fri Oct 23, 12:04pm

Fri Oct 23, 11:04am

Fri Oct 23, 10:04am

Fri Oct 23, 9:04am

Fri Oct 23, 8:04am

Fri Oct 23, 7:04am

Fri Oct 23, 6:04am

Fri Oct 23, 5:04am

Fri Oct 23, 4:04am

Fri Oct 23, 3:04am

Fri Oct 23, 2:04am

Fri Oct 23, 1:04am

Fri Oct 23, 12:04am

Thu Oct 22, 11:04pm

Thu Oct 22, 10:04pm

Thu Oct 22, 9:05pm

Thu Oct 22, 8:04pm

Thu Oct 22, 7:05pm

Thu Oct 22, 6:04pm

Thu Oct 22, 5:04pm

Thu Oct 22, 4:05pm

Thu Oct 22, 3:04pm

Thu Oct 22, 2:05pm

Thu Oct 22, 12:04pm

Thu Oct 22, 11:04am

Thu Oct 22, 10:05am

Thu Oct 22, 9:04am

Thu Oct 22, 8:05am

Thu Oct 22, 7:04am

Thu Oct 22, 6:04am

Thu Oct 22, 5:04am

Thu Oct 22, 4:04am

Thu Oct 22, 3:04am

Thu Oct 22, 2:04am

Thu Oct 22, 1:04am

Thu Oct 22, 12:04am

Wed Oct 21, 11:05pm

Wed Oct 21, 10:04pm

Wed Oct 21, 9:04pm

Wed Oct 21, 8:04pm

Wed Oct 21, 7:04pm

Wed Oct 21, 6:04pm

Wed Oct 21, 5:05pm

Wed Oct 21, 4:04pm

Wed Oct 21, 3:04pm

Wed Oct 21, 2:05pm

Wed Oct 21, 1:04pm

Wed Oct 21, 12:04pm

Wed Oct 21, 11:04am

Wed Oct 21, 10:04am

Wed Oct 21, 9:04am

Wed Oct 21, 8:04am

Wed Oct 21, 7:04am

Wed Oct 21, 6:04am

Wed Oct 21, 5:04am

Wed Oct 21, 4:04am

Wed Oct 21, 3:04am

Wed Oct 21, 2:04am

Wed Oct 21, 1:04am

Wed Oct 21, 12:04am

Tue Oct 20, 11:05pm

Tue Oct 20, 10:04pm

Tue Oct 20, 9:04pm

Tue Oct 20, 8:05pm

Tue Oct 20, 7:04pm

Tue Oct 20, 6:04pm

Tue Oct 20, 5:05pm

Tue Oct 20, 4:04pm

Tue Oct 20, 3:05pm

Tue Oct 20, 2:07pm

Tue Oct 20, 1:04pm

Tue Oct 20, 12:04pm

Tue Oct 20, 11:04am

Tue Oct 20, 10:05am

Tue Oct 20, 9:04am

Tue Oct 20, 8:04am

Tue Oct 20, 7:04am

Tue Oct 20, 6:04am

Tue Oct 20, 5:04am

Tue Oct 20, 4:04am

Tue Oct 20, 3:04am

Tue Oct 20, 2:04am

Tue Oct 20, 1:04am

Tue Oct 20, 12:04am

Mon Oct 19, 11:04pm

Mon Oct 19, 10:04pm

Mon Oct 19, 9:04pm

Mon Oct 19, 8:04pm

Mon Oct 19, 7:04pm

Mon Oct 19, 6:04pm

Mon Oct 19, 5:04pm

Mon Oct 19, 4:04pm

Mon Oct 19, 3:04pm

Mon Oct 19, 2:04pm

Mon Oct 19, 1:05pm

Mon Oct 19, 12:04pm

Mon Oct 19, 11:04am

Mon Oct 19, 10:04am

Mon Oct 19, 9:04am

Mon Oct 19, 8:04am

Mon Oct 19, 7:04am

Mon Oct 19, 6:04am

Mon Oct 19, 5:04am

Mon Oct 19, 4:04am

Mon Oct 19, 3:04am

Mon Oct 19, 2:04am

Mon Oct 19, 1:04am

Mon Oct 19, 12:05am

Sun Oct 18, 11:04pm

Sun Oct 18, 10:04pm

Sun Oct 18, 9:04pm

Sun Oct 18, 8:04pm

Sun Oct 18, 7:05pm

Sun Oct 18, 6:04pm

Sun Oct 18, 5:05pm

Sun Oct 18, 4:05pm

Sun Oct 18, 3:04pm

Sun Oct 18, 2:05pm

Sun Oct 18, 1:04pm

Sun Oct 18, 12:04pm

Sun Oct 18, 11:04am

Sun Oct 18, 10:04am

Sun Oct 18, 9:04am

Sun Oct 18, 8:04am

Sun Oct 18, 7:04am

Sun Oct 18, 6:04am

Sun Oct 18, 5:04am

Sun Oct 18, 4:04am

Sun Oct 18, 3:04am

Sun Oct 18, 2:04am

Sun Oct 18, 1:04am

Sun Oct 18, 12:04am

Sat Oct 17, 11:05pm

Sat Oct 17, 10:04pm

Sat Oct 17, 9:04pm

Sat Oct 17, 8:04pm

Sat Oct 17, 7:04pm

Sat Oct 17, 6:04pm

Sat Oct 17, 5:05pm

Sat Oct 17, 4:04pm

Sat Oct 17, 3:04pm

Sat Oct 17, 2:05pm

Sat Oct 17, 1:05pm

Sat Oct 17, 12:04pm

Sat Oct 17, 11:05am

Sat Oct 17, 10:04am

Sat Oct 17, 9:04am

Sat Oct 17, 8:04am

Sat Oct 17, 7:04am

Sat Oct 17, 6:04am

Sat Oct 17, 5:04am

Sat Oct 17, 4:04am

Sat Oct 17, 3:04am

Sat Oct 17, 2:04am

Sat Oct 17, 1:05am

Sat Oct 17, 12:04am

Fri Oct 16, 11:05pm

Fri Oct 16, 10:04pm

Fri Oct 16, 9:05pm

Fri Oct 16, 8:04pm

Fri Oct 16, 7:05pm

Fri Oct 16, 6:04pm

Meta data:

ID: 0c4258b2-5cc5-4f2f-a752-ce6b66c7337e
Link: https://api.weather.gov/products/0c4258b2-5cc5-4f2f-a752-ce6b66c7337e